Location: Oberkirch
(48.5323°N, 8.0787°E)
Time: 15:24:42
(UTC+00:00)

Vanguard 3 - Pass Details

Date: 21 February 2026
Orbit: 507 x 3205 km, 33.3° (Epoch: 5 March)

Event Time Altitude Azimuth Distance (km) Brightness Sun altitude
Rises 18:16:50 0° 258° (WSW) 4,552 12.7 -13.6°
Reaches altitude 10° 18:21:50 10° 238° (WSW) 2,993 10.9 -14.4°
Maximum altitude 18:25:32 15° 206° (SSW) 2,233 9.7 -15.1°
Drops below altitude 10° 18:28:29 10° 171° (S) 2,270 9.3 -15.5°
Enters shadow 18:30:24 - 154° (SSE) 2,636 9.5 -15.9°
